| time (UTC) | temp F | wind direction | speed MPH | gust MPH | rain 1hr in | rain 24hr in | rain mn in | humidity % | barometer mb |
| 20260906001947 | 59 | 190 | 5.0 | 0.0 | 0.00 | 0.00 | 0.00 | 77 | 1020.0 |
| 20260906000437 | 59 | 190 | 5.0 | 0.0 | 0.00 | 0.00 | 0.00 | 77 | 1020.0 |
| 20260905234839 | 61 | 250 | 7.0 | 0.0 | 0.00 | 0.00 | 0.00 | 72 | 1020.0 |
| 20260905233329 | 61 | 250 | 7.0 | 0.0 | 0.00 | 0.00 | 0.00 | 72 | 1020.0 |
| 20260905231947 | 59 | 210 | 7.0 | 0.0 | 0.00 | 0.00 | 0.00 | 82 | 1020.0 |
| 20260905230401 | 59 | 210 | 7.0 | 0.0 | 0.00 | 0.00 | 0.00 | 82 | 1020.0 |
| 20260905224948 | 59 | 180 | 6.0 | 0.0 | 0.00 | 0.00 | 0.00 | 82 | 1020.0 |
| 20260905223343 | 59 | 180 | 6.0 | 0.0 | 0.00 | 0.00 | 0.00 | 82 | 1020.0 |
| 20260905221932 | 61 | 210 | 7.0 | 0.0 | 0.00 | 0.00 | 0.00 | 83 | 1020.0 |
| 20260905220447 | 61 | 210 | 7.0 | 0.0 | 0.00 | 0.00 | 0.00 | 83 | 1020.0 |
| 20260905214946 | 61 | 210 | 8.0 | 0.0 | 0.00 | 0.00 | 0.00 | 83 | 1020.0 |
| 20260905213329 | 61 | 210 | 8.0 | 0.0 | 0.00 | 0.00 | 0.00 | 83 | 1020.0 |
| 20260905211829 | 63 | 200 | 9.0 | 0.0 | 0.00 | 0.00 | 0.00 | 77 | 1020.0 |
| 20260905210329 | 63 | 200 | 9.0 | 0.0 | 0.00 | 0.00 | 0.00 | 77 | 1020.0 |
| 20260905204840 | 63 | 200 | 8.0 | 0.0 | 0.00 | 0.00 | 0.00 | 77 | 1019.0 |
| 20260905203329 | 63 | 200 | 8.0 | 0.0 | 0.00 | 0.00 | 0.00 | 77 | 1019.0 |
| 20260905201829 | 63 | 190 | 7.0 | 0.0 | 0.00 | 0.00 | 0.00 | 83 | 1019.0 |
| 20260905200447 | 63 | 190 | 7.0 | 0.0 | 0.00 | 0.00 | 0.00 | 83 | 1019.0 |
| 20260905194938 | 64 | 210 | 9.0 | 0.0 | 0.00 | 0.00 | 0.00 | 78 | 1019.0 |
| 20260905193330 | 64 | 210 | 9.0 | 0.0 | 0.00 | 0.00 | 0.00 | 78 | 1019.0 |
| 20260905191858 | 66 | 200 | 10.0 | 0.0 | 0.00 | 0.00 | 0.00 | 73 | 1019.0 |
| 20260905190330 | 66 | 200 | 10.0 | 0.0 | 0.00 | 0.00 | 0.00 | 73 | 1019.0 |
| 20260905184827 | 66 | 190 | 8.0 | 0.0 | 0.00 | 0.00 | 0.00 | 73 | 1018.0 |
| 20260905183334 | 66 | 190 | 8.0 | 0.0 | 0.00 | 0.00 | 0.00 | 73 | 1018.0 |
| 20260905181826 | 70 | 220 | 8.0 | 0.0 | 0.00 | 0.00 | 0.00 | 60 | 1018.0 |
| 20260905180326 | 70 | 220 | 8.0 | 0.0 | 0.00 | 0.00 | 0.00 | 60 | 1018.0 |
| 20260905174826 | 70 | 250 | 3.0 | 0.0 | 0.00 | 0.00 | 0.00 | 60 | 1017.0 |
| 20260905173329 | 70 | 250 | 3.0 | 0.0 | 0.00 | 0.00 | 0.00 | 60 | 1017.0 |
| 20260905171837 | 70 | 280 | 8.0 | 0.0 | 0.00 | 0.00 | 0.00 | 60 | 1017.0 |
| 20260905170329 | 70 | 280 | 8.0 | 0.0 | 0.00 | 0.00 | 0.00 | 60 | 1017.0 |
| 20260905164829 | 72 | 290 | 10.0 | 0.0 | 0.00 | 0.00 | 0.00 | 57 | 1017.0 |
| 20260905163330 | 72 | 290 | 10.0 | 0.0 | 0.00 | 0.00 | 0.00 | 57 | 1017.0 |
| 20260905161827 | 72 | 300 | 9.0 | 0.0 | 0.00 | 0.00 | 0.00 | 61 | 1017.0 |
| 20260905160330 | 72 | 300 | 9.0 | 0.0 | 0.00 | 0.00 | 0.00 | 61 | 1017.0 |
| 20260905154843 | 72 | 310 | 13.0 | 0.0 | 0.00 | 0.00 | 0.00 | 65 | 1017.0 |
| 20260905153329 | 72 | 310 | 13.0 | 0.0 | 0.00 | 0.00 | 0.00 | 65 | 1017.0 |
| 20260905151830 | 79 | 290 | 11.0 | 0.0 | 0.00 | 0.00 | 0.00 | 45 | 1016.0 |
| 20260905150330 | 79 | 290 | 11.0 | 0.0 | 0.00 | 0.00 | 0.00 | 45 | 1016.0 |
| 20260905144826 | 81 | 280 | 9.0 | 0.0 | 0.00 | 0.00 | 0.00 | 37 | 1016.0 |
| 20260905143329 | 81 | 280 | 9.0 | 0.0 | 0.00 | 0.00 | 0.00 | 37 | 1016.0 |
| 20260905141827 | 81 | 280 | 6.0 | 0.0 | 0.00 | 0.00 | 0.00 | 37 | 1016.0 |
| 20260905140326 | 81 | 280 | 6.0 | 0.0 | 0.00 | 0.00 | 0.00 | 37 | 1016.0 |
| 20260905134945 | 79 | 40 | 3.0 | 0.0 | 0.00 | 0.00 | 0.00 | 42 | 1016.0 |
| 20260905133330 | 79 | 40 | 3.0 | 0.0 | 0.00 | 0.00 | 0.00 | 42 | 1016.0 |
| 20260905131832 | 79 | 40 | 7.0 | 0.0 | 0.00 | 0.00 | 0.00 | 42 | 1016.0 |
| 20260905130351 | 79 | 40 | 7.0 | 0.0 | 0.00 | 0.00 | 0.00 | 42 | 1016.0 |
| 20260905124827 | 81 | 350 | 16.0 | 0.0 | 0.00 | 0.00 | 0.00 | 39 | 1017.0 |
| 20260905123330 | 81 | 350 | 16.0 | 0.0 | 0.00 | 0.00 | 0.00 | 39 | 1017.0 |
| 20260905121857 | 84 | 360 | 13.0 | 0.0 | 0.00 | 0.00 | 0.00 | 37 | 1016.0 |
| 20260905120330 | 84 | 360 | 13.0 | 0.0 | 0.00 | 0.00 | 0.00 | 37 | 1016.0 |
| 20260905114830 | 84 | 320 | 17.0 | 0.0 | 0.00 | 0.00 | 0.00 | 37 | 1016.0 |
| 20260905113329 | 84 | 320 | 17.0 | 0.0 | 0.00 | 0.00 | 0.00 | 37 | 1016.0 |
| 20260905111848 | 84 | 340 | 18.0 | 0.0 | 0.00 | 0.00 | 0.00 | 37 | 1016.0 |
| 20260905110329 | 84 | 340 | 18.0 | 0.0 | 0.00 | 0.00 | 0.00 | 37 | 1016.0 |
| 20260905104830 | 88 | 320 | 16.0 | 0.0 | 0.00 | 0.00 | 0.00 | 33 | 1016.0 |
| 20260905103329 | 88 | 320 | 16.0 | 0.0 | 0.00 | 0.00 | 0.00 | 33 | 1016.0 |
| 20260905101829 | 86 | 280 | 14.0 | 0.0 | 0.00 | 0.00 | 0.00 | 33 | 1016.0 |
| 20260905100330 | 86 | 280 | 14.0 | 0.0 | 0.00 | 0.00 | 0.00 | 33 | 1016.0 |
| 20260905094947 | 88 | 230 | 15.0 | 0.0 | 0.00 | 0.00 | 0.00 | 31 | 1015.0 |
| 20260905093329 | 88 | 230 | 15.0 | 0.0 | 0.00 | 0.00 | 0.00 | 31 | 1015.0 |
| 20260905091829 | 86 | 230 | 16.0 | 0.0 | 0.00 | 0.00 | 0.00 | 33 | 1015.0 |
| 20260905090329 | 86 | 230 | 16.0 | 0.0 | 0.00 | 0.00 | 0.00 | 33 | 1015.0 |
| 20260905084829 | 86 | 220 | 18.0 | 0.0 | 0.00 | 0.00 | 0.00 | 31 | 1015.0 |
| 20260905083329 | 86 | 220 | 18.0 | 0.0 | 0.00 | 0.00 | 0.00 | 31 | 1015.0 |
| 20260905081829 | 84 | 220 | 21.0 | 0.0 | 0.00 | 0.00 | 0.00 | 33 | 1015.0 |
| 20260905080330 | 84 | 220 | 21.0 | 0.0 | 0.00 | 0.00 | 0.00 | 33 | 1015.0 |
| 20260905074829 | 82 | 210 | 22.0 | 0.0 | 0.00 | 0.00 | 0.00 | 35 | 1014.0 |
| 20260905073338 | 82 | 210 | 22.0 | 0.0 | 0.00 | 0.00 | 0.00 | 35 | 1014.0 |
| 20260905071830 | 82 | 210 | 22.0 | 0.0 | 0.00 | 0.00 | 0.00 | 35 | 1014.0 |
| 20260905070329 | 82 | 210 | 22.0 | 0.0 | 0.00 | 0.00 | 0.00 | 35 | 1014.0 |
| 20260905064830 | 81 | 200 | 23.0 | 0.0 | 0.00 | 0.00 | 0.00 | 37 | 1014.0 |
| 20260905063330 | 81 | 200 | 23.0 | 0.0 | 0.00 | 0.00 | 0.00 | 37 | 1014.0 |
| 20260905061830 | 79 | 200 | 22.0 | 0.0 | 0.00 | 0.00 | 0.00 | 39 | 1014.0 |
| 20260905060330 | 79 | 200 | 22.0 | 0.0 | 0.00 | 0.00 | 0.00 | 39 | 1014.0 |
| 20260905054830 | 77 | 200 | 18.0 | 0.0 | 0.00 | 0.00 | 0.00 | 42 | 1015.0 |
| 20260905053330 | 77 | 200 | 18.0 | 0.0 | 0.00 | 0.00 | 0.00 | 42 | 1015.0 |
| 20260905051829 | 75 | 190 | 18.0 | 0.0 | 0.00 | 0.00 | 0.00 | 44 | 1015.0 |
| 20260905050330 | 75 | 190 | 18.0 | 0.0 | 0.00 | 0.00 | 0.00 | 44 | 1015.0 |
| 20260905044830 | 75 | 190 | 17.0 | 0.0 | 0.00 | 0.00 | 0.00 | 41 | 1015.0 |
| 20260905043329 | 75 | 190 | 17.0 | 0.0 | 0.00 | 0.00 | 0.00 | 41 | 1015.0 |
| 20260905041829 | 73 | 180 | 16.0 | 0.0 | 0.00 | 0.00 | 0.00 | 47 | 1014.0 |
| 20260905040329 | 73 | 180 | 16.0 | 0.0 | 0.00 | 0.00 | 0.00 | 47 | 1014.0 |
| 20260905034830 | 73 | 180 | 15.0 | 0.0 | 0.00 | 0.00 | 0.00 | 47 | 1014.0 |
| 20260905033329 | 73 | 180 | 15.0 | 0.0 | 0.00 | 0.00 | 0.00 | 47 | 1014.0 |
| 20260905031830 | 73 | 180 | 14.0 | 0.0 | 0.00 | 0.00 | 0.00 | 47 | 1014.0 |
| 20260905030329 | 73 | 180 | 14.0 | 0.0 | 0.00 | 0.00 | 0.00 | 47 | 1014.0 |
| 20260905024842 | 73 | 180 | 14.0 | 0.0 | 0.00 | 0.00 | 0.00 | 47 | 1014.0 |
| 20260905023330 | 73 | 180 | 14.0 | 0.0 | 0.00 | 0.00 | 0.00 | 47 | 1014.0 |
| 20260905021830 | 73 | 180 | 14.0 | 0.0 | 0.00 | 0.00 | 0.00 | 47 | 1014.0 |
| 20260905020330 | 73 | 180 | 14.0 | 0.0 | 0.00 | 0.00 | 0.00 | 47 | 1014.0 |
| 20260905014830 | 73 | 180 | 13.0 | 0.0 | 0.00 | 0.00 | 0.00 | 47 | 1014.0 |
| 20260905013329 | 73 | 180 | 13.0 | 0.0 | 0.00 | 0.00 | 0.00 | 47 | 1014.0 |
| 20260905011830 | 73 | 180 | 11.0 | 0.0 | 0.00 | 0.00 | 0.00 | 47 | 1015.0 |
| 20260905010330 | 73 | 180 | 11.0 | 0.0 | 0.00 | 0.00 | 0.00 | 47 | 1015.0 |
| 20260905004830 | 73 | 180 | 13.0 | 0.0 | 0.00 | 0.00 | 0.00 | 47 | 1015.0 |
| 20260905003330 | 73 | 180 | 13.0 | 0.0 | 0.00 | 0.00 | 0.00 | 47 | 1015.0 |